Location: Chanteloup
(48.8560°N, 2.7390°E)
Time: 18:24:54
(UTC+00:00)

Cosmos 1758 Rocket - Pass Details

Date: 02 June 2022
Orbit: 601 x 635 km, 82.5° (Epoch: 27 June)

Event Time Altitude Azimuth Distance (km) Brightness Sun altitude
Rises 03:00:29 0° 173° (S) 2,865 6.6 -6.9°
Reaches altitude 10° 03:02:45 10° 168° (SSE) 1,961 5.8 -6.7°
Maximum altitude 03:06:55 48° 94° (E) 797 4.5 -6.2°
Drops below altitude 10° 03:11:05 10° 20° (NNE) 1,962 7.3 -5.7°
Sets 03:13:21 0° 15° (NNE) 2,868 8.1 -5.4°
